When you browse on this site, cookies collect data to enhance your experience and personalize the content and advertising you see.
Visit our Privacy Policy to learn more. By continuing to use the site, you agree to this use of cookies and data.
  • In Hungary
  • List of Countries
  • For 7 days
  • Water Temperature
  • Weather Map
  • News
  • Weather Widgets
  • user-avatar
    Login

    Hourly Weather Amslen

    Today, 30 March, Monday

    Time Temperature Precipitation Wind Pressure Humidity
    00:00 -2°C° 0.7 mm 3 mps 686 mmHg 97%
    01:00 -3°C° 0 mm 4 mps 687 mmHg 97%
    02:00 -3°C° 0.4 mm 4 mps 687 mmHg 96%
    03:00 -4°C° 0.4 mm 4 mps 686 mmHg 95%
    04:00 -4°C° 0.4 mm 4 mps 686 mmHg 95%
    05:00 -4°C° 0.1 mm 4 mps 686 mmHg 94%
    06:00 -5°C° 0.1 mm 4 mps 687 mmHg 93%
    07:00 -5°C° 0 mm 4 mps 687 mmHg 93%
    08:00 -4°C° 0.1 mm 4 mps 687 mmHg 90%
    09:00 -4°C° 0.1 mm 4 mps 687 mmHg 88%
    10:00 -3°C° 0.1 mm 4 mps 687 mmHg 86%
    11:00 -3°C° 0.1 mm 4 mps 687 mmHg 83%
    12:00 -2°C° 0.1 mm 4 mps 687 mmHg 80%
    13:00 -1°C° 0.1 mm 4 mps 687 mmHg 77%
    14:00 -1°C° 0.1 mm 4 mps 687 mmHg 76%
    15:00 0°C° 0.1 mm 4 mps 687 mmHg 74%
    16:00 0°C° 0.1 mm 4 mps 687 mmHg 73%
    17:00 -1°C° 0 mm 4 mps 687 mmHg 75%
    18:00 -1°C° 0 mm 3 mps 687 mmHg 77%
    19:00 -3°C° 0 mm 2 mps 687 mmHg 79%
    20:00 -4°C° 0 mm 2 mps 687 mmHg 80%
    21:00 -5°C° 0 mm 2 mps 687 mmHg 82%
    22:00 -4°C° 0 mm 1 mps 687 mmHg 83%
    23:00 -6°C° 0 mm 1 mps 687 mmHg 83%

    Tomorrow, 31 March, Tuesday

    Time Temperature Precipitation Wind Pressure Humidity
    00:00 -6°C° 0 mm 1 mps 687 mmHg 83%
    01:00 -7°C° 0 mm 1 mps 687 mmHg 83%
    02:00 -7°C° 0 mm 1 mps 687 mmHg 84%
    03:00 -7°C° 0 mm 1 mps 687 mmHg 85%
    04:00 -7°C° 0 mm 1 mps 687 mmHg 85%
    05:00 -7°C° 0 mm 1 mps 687 mmHg 84%
    06:00 -6°C° 0 mm 1 mps 688 mmHg 82%
    07:00 -6°C° 0 mm 1 mps 688 mmHg 81%
    08:00 -5°C° 0 mm 2 mps 688 mmHg 72%
    09:00 -2°C° 0 mm 2 mps 689 mmHg 64%
    10:00 0°C° 0 mm 3 mps 689 mmHg 55%
    11:00 +1°C° 0 mm 3 mps 689 mmHg 54%
    12:00 +2°C° 0 mm 3 mps 689 mmHg 52%
    13:00 +4°C° 0 mm 3 mps 689 mmHg 51%
    14:00 +4°C° 0 mm 3 mps 689 mmHg 52%
    15:00 +4°C° 0 mm 3 mps 689 mmHg 52%
    16:00 +4°C° 0 mm 4 mps 688 mmHg 53%
    17:00 +2°C° 0 mm 3 mps 688 mmHg 60%
    18:00 0°C° 0 mm 3 mps 688 mmHg 68%
    19:00 -2°C° 0 mm 2 mps 688 mmHg 75%
    20:00 -3°C° 0 mm 2 mps 688 mmHg 77%
    21:00 -4°C° 0 mm 2 mps 688 mmHg 80%
    22:00 -5°C° 0 mm 2 mps 688 mmHg 83%
    23:00 -5°C° 0 mm 2 mps 688 mmHg 83%

    Day after tomorrow, 1 April, Wednesday

    Time Temperature Precipitation Wind Pressure Humidity
    00:00 -4°C° 0 mm 1 mps 688 mmHg 82%
    01:00 -4°C° 0 mm 1 mps 688 mmHg 82%
    02:00 -4°C° 0 mm 1 mps 687 mmHg 81%
    03:00 -6°C° 0 mm 1 mps 687 mmHg 81%
    04:00 -6°C° 0 mm 1 mps 686 mmHg 80%
    05:00 -4°C° 0 mm 1 mps 687 mmHg 77%
    06:00 -5°C° 0 mm 0 mps 687 mmHg 75%
    07:00 -5°C° 0 mm 0 mps 687 mmHg 72%
    08:00 -2°C° 0 mm 0 mps 687 mmHg 65%
    09:00 +2°C° 0 mm 1 mps 687 mmHg 59%
    10:00 +4°C° 0 mm 1 mps 687 mmHg 52%
    11:00 +6°C° 0 mm 1 mps 687 mmHg 50%
    12:00 +7°C° 0 mm 1 mps 687 mmHg 48%
    13:00 +9°C° 0 mm 1 mps 687 mmHg 46%
    14:00 +9°C° 0 mm 1 mps 687 mmHg 47%
    15:00 +9°C° 0 mm 1 mps 686 mmHg 47%
    16:00 +8°C° 0 mm 1 mps 685 mmHg 48%
    17:00 +6°C° 0 mm 1 mps 685 mmHg 56%
    18:00 +3°C° 0 mm 0 mps 685 mmHg 64%
    19:00 0°C° 0 mm 0 mps 685 mmHg 72%
    20:00 0°C° 0 mm 0 mps 685 mmHg 75%
    21:00 0°C° 0 mm 1 mps 685 mmHg 77%
    22:00 0°C° 0 mm 1 mps 684 mmHg 80%
    23:00 -1°C° 0 mm 1 mps 684 mmHg 81%

    2 April, Thursday

    Time Temperature Precipitation Wind Pressure Humidity
    00:00 -1°C° 0 mm 1 mps 684 mmHg 82%
    01:00 -1°C° 0 mm 1 mps 684 mmHg 82%
    02:00 -1°C° 0 mm 1 mps 684 mmHg 83%
    03:00 -2°C° 0 mm 1 mps 684 mmHg 84%
    04:00 -2°C° 0 mm 1 mps 683 mmHg 85%
    05:00 -1°C° 0 mm 1 mps 683 mmHg 83%
    06:00 -2°C° 0 mm 0 mps 684 mmHg 81%
    07:00 -1°C° 0 mm 0 mps 684 mmHg 79%
    08:00 +2°C° 0 mm 0 mps 684 mmHg 72%
    09:00 +5°C° 0 mm 1 mps 684 mmHg 65%
    10:00 +8°C° 0 mm 1 mps 684 mmHg 58%
    11:00 +9°C° 0 mm 1 mps 684 mmHg 56%
    12:00 +10°C° 0 mm 1 mps 684 mmHg 54%
    13:00 +11°C° 0 mm 1 mps 683 mmHg 52%
    14:00 +10°C° 0 mm 2 mps 683 mmHg 53%
    15:00 +9°C° 0 mm 2 mps 683 mmHg 55%
    16:00 +9°C° 0 mm 2 mps 682 mmHg 56%
    17:00 +7°C° 0 mm 2 mps 682 mmHg 64%
    18:00 +6°C° 0 mm 1 mps 682 mmHg 73%
    19:00 +4°C° 0 mm 1 mps 682 mmHg 81%
    20:00 +3°C° 0 mm 1 mps 682 mmHg 82%
    21:00 +3°C° 0 mm 1 mps 682 mmHg 83%
    22:00 +2°C° 0 mm 1 mps 683 mmHg 84%
    23:00 +2°C° 0 mm 1 mps 683 mmHg 85%

    3 April, Friday

    Time Temperature Precipitation Wind Pressure Humidity
    00:00 +2°C° 0 mm 1 mps 683 mmHg 86%
    01:00 +2°C° 0 mm 1 mps 683 mmHg 87%
    02:00 +1°C° 0 mm 1 mps 683 mmHg 88%
    03:00 +1°C° 0 mm 1 mps 683 mmHg 89%
    04:00 0°C° 0 mm 0 mps 683 mmHg 90%
    05:00 0°C° 0 mm 0 mps 684 mmHg 90%
    06:00 0°C° 0 mm 0 mps 684 mmHg 90%
    07:00 +1°C° 0 mm 0 mps 685 mmHg 90%
    08:00 +3°C° 0 mm 1 mps 685 mmHg 84%
    09:00 +4°C° 0 mm 1 mps 685 mmHg 77%
    10:00 +6°C° 0 mm 1 mps 685 mmHg 71%
    11:00 +7°C° 0 mm 1 mps 685 mmHg 66%
    12:00 +8°C° 0 mm 1 mps 686 mmHg 62%
    13:00 +9°C° 0 mm 1 mps 686 mmHg 57%
    14:00 +9°C° 0 mm 1 mps 686 mmHg 57%
    15:00 +9°C° 0 mm 1 mps 686 mmHg 56%
    16:00 +9°C° 0 mm 1 mps 686 mmHg 56%
    17:00 +8°C° 0 mm 1 mps 686 mmHg 64%
    18:00 +6°C° 0 mm 1 mps 686 mmHg 71%
    19:00 +4°C° 0 mm 1 mps 686 mmHg 79%
    20:00 +3°C° 0 mm 1 mps 687 mmHg 82%
    21:00 +2°C° 0 mm 1 mps 687 mmHg 85%
    22:00 +1°C° 0 mm 1 mps 688 mmHg 87%
    23:00 +1°C° 0 mm 1 mps 688 mmHg 89%

    4 April, Saturday

    Time Temperature Precipitation Wind Pressure Humidity
    00:00 0°C° 0 mm 1 mps 688 mmHg 90%
    01:00 0°C° 0 mm 1 mps 688 mmHg 91%
    02:00 0°C° 0 mm 1 mps 688 mmHg 90%
    03:00 -1°C° 0 mm 1 mps 688 mmHg 90%
    04:00 -1°C° 0 mm 1 mps 688 mmHg 89%
    05:00 -1°C° 0 mm 1 mps 688 mmHg 86%
    06:00 0°C° 0 mm 1 mps 688 mmHg 84%
    07:00 0°C° 0 mm 1 mps 689 mmHg 81%
    08:00 +3°C° 0 mm 1 mps 689 mmHg 74%
    09:00 +5°C° 0 mm 1 mps 689 mmHg 66%
    10:00 +8°C° 0 mm 1 mps 690 mmHg 58%
    11:00 +10°C° 0 mm 1 mps 690 mmHg 54%
    12:00 +11°C° 0 mm 1 mps 690 mmHg 51%
    13:00 +13°C° 0 mm 1 mps 690 mmHg 47%
    14:00 +13°C° 0 mm 1 mps 690 mmHg 48%
    15:00 +13°C° 0 mm 1 mps 690 mmHg 48%
    16:00 +13°C° 0 mm 1 mps 690 mmHg 49%
    17:00 +11°C° 0 mm 1 mps 690 mmHg 58%
    18:00 +9°C° 0 mm 1 mps 689 mmHg 68%
    19:00 +6°C° 0 mm 1 mps 689 mmHg 77%
    20:00 +6°C° 0 mm 1 mps 690 mmHg 79%
    21:00 +5°C° 0 mm 1 mps 690 mmHg 81%
    22:00 +3°C° 0 mm 2 mps 691 mmHg 82%
    23:00 +3°C° 0 mm 2 mps 691 mmHg 82%
    Show more